sat.trackr.live / text

‹ back to catalog

UNKNOWN

NORAD 89494

UNKNOWN UNKNOWN UNKNOWN

§ Identity

Operator
Country
Launch date
Launch site
Launch vehicle
Mass (kg)
RCS (m²)

External: N2YO · Heavens-Above

§ Orbital elements

Epoch: 2026-09-18T11:24:20.475072Z

Period
101.58 min
Inclination
99.0102°
Eccentricity
0.0079216
Mean motion
14.17535131 rev/d
Perigee alt
776.6 km
Apogee alt
890.8 km
Semi-major
7,211.8 km
B*
7.1141e-4
RAAN
339.0554°
Arg perigee
325.6895°
Mean anomaly
33.9177°
Rev number
50,341

§ Raw data

UNKNOWN1 89494U          26261.47523698  .00001443  00000+0  71141-3 0  99932 89494  99.0102 339.0554 0079216 325.6895  33.9177 14.17535131503413

JSON: /api/v1/satellites/89494 · /tle

For live sub-satellite position, see the globe view (requires WebGL).

§ Visibility from observer

Set your observer location to see the next 7 days of passes ≥ 10°. The values pass through the URL so the page stays shareable.

No JS? Fill the form by hand. The geolocation button needs JavaScript.